Shreveport, LA

8:38 PM CST on December 10, 2016 (GMT -0600)
Shreveport Downtown

Weather History for KDTN - October, 2012

Change the Weather History Date:

Thursday, October 4, 2012

  Actual Average (KBAD) Record (KBAD)
Temperature  
Mean Temperature 70 °F -  
Max Temperature 82 °F 76 °F 91 °F (2005)
Min Temperature 57 °F 57 °F 43 °F (2010)
Cooling Degree Days 4    
Growing Degree Days 20 (Base 50)    
Moisture  
Dew Point 61 °F    
Average Humidity 76    
Maximum Humidity 97    
Minimum Humidity 51    
Precipitation  
Precipitation 0.01 in - - ()
Sea Level Pressure  
Sea Level Pressure 30.13 in    
Wind  
Wind Speed 2 mph (SE)    
Max Wind Speed 10 mph    
Max Gust Speed 17 mph    
Visibility 9 miles    
Events      
Averages and records for this station are not official NWS values.
T = Trace of Precipitation, MM = Missing Value Source: NWS Daily Summary

Daily Weather History Graph

Daily Weather History Graph

Search for Another Location

Airport or City:

Trip Planner

Search our weather history database for the weather conditions in past years. The results will help you decide how hot, cold, wet, or windy it might be!

Date:

Astronomy

Oct. 04, 2012 Rise Set
Actual Time 7:11 AM CDT 6:55 PM CDT
Civil Twilight 6:46 AM CDT 7:19 PM CDT
Nautical Twilight 6:18 AM CDT 7:48 PM CDT
Astronomical Twilight 5:49 AM CDT 8:16 PM CDT
Moon 9:46 PM CDT (10/4) 11:14 AM CDT (10/4)
Length of Visible Light 12h 32m
Length of Day
11h 43m
Waning Gibbous, 82% of the Moon is Illuminated
Oct 4
Waning Gibbous
Oct 8
Last Quarter
Oct 15
New
Oct 21
First Quarter
Oct 29
Full

Hourly Weather History & Observations

Time (CDT) Temp. Heat Index Dew Point Humidity Pressure Visibility Wind Dir Wind Speed Gust Speed Precip Events Conditions
12:53 AM 61.0 °F - 57.9 °F 90% 30.09 in 10.0 mi Calm Calm - N/A   Clear
1:53 AM 61.0 °F - 57.9 °F 90% 30.09 in 10.0 mi Calm Calm - N/A   Clear
2:53 AM 59.0 °F - 57.9 °F 96% 30.10 in 10.0 mi Calm Calm - N/A   Clear
3:53 AM 59.0 °F - 57.0 °F 93% 30.10 in 10.0 mi Calm Calm - N/A   Clear
4:53 AM 59.0 °F - 57.0 °F 93% 30.12 in 10.0 mi Calm Calm - N/A   Clear
5:53 AM 59.0 °F - 57.0 °F 93% 30.13 in 9.0 mi Calm Calm - N/A   Clear
6:53 AM 57.9 °F - 57.0 °F 97% 30.15 in 7.0 mi Calm Calm - N/A   Clear
7:53 AM 59.0 °F - 57.9 °F 96% 30.17 in 6.0 mi Calm Calm - N/A   Clear
8:53 AM 64.0 °F - 60.1 °F 87% 30.18 in 8.0 mi SSE 3.5 mph - 0.01 in   Clear
9:53 AM 70.0 °F - 63.0 °F 78% 30.19 in 10.0 mi SE 3.5 mph - N/A   Clear
10:53 AM 75.0 °F - 64.9 °F 71% 30.19 in 10.0 mi SE 5.8 mph - N/A   Clear
11:53 AM 78.1 °F - 64.9 °F 64% 30.20 in 10.0 mi SE 9.2 mph - N/A   Clear
12:53 PM 79.0 °F - 64.9 °F 62% 30.18 in 9.0 mi SE 8.1 mph - N/A   Partly Cloudy
1:53 PM 81.0 °F 82.5 °F 64.0 °F 56% 30.16 in 7.0 mi ESE 8.1 mph - N/A   Scattered Clouds
2:53 PM 82.0 °F 83.1 °F 63.0 °F 52% 30.14 in 10.0 mi SSE 10.4 mph 17.3 mph N/A   Clear
3:53 PM 82.0 °F 83.0 °F 62.1 °F 51% 30.12 in 10.0 mi ESE 6.9 mph - N/A   Clear
4:53 PM 82.0 °F 83.0 °F 62.1 °F 51% 30.11 in 10.0 mi SE 9.2 mph - N/A   Clear
5:53 PM 81.0 °F 81.9 °F 62.1 °F 52% 30.10 in 10.0 mi SE 10.4 mph - N/A   Clear
6:53 PM 77.0 °F - 62.1 °F 60% 30.09 in 10.0 mi SE 5.8 mph - N/A   Clear
7:53 PM 73.9 °F - 63.0 °F 68% 30.11 in 10.0 mi SE 3.5 mph - N/A   Clear
8:53 PM 70.0 °F - 64.0 °F 81% 30.12 in 10.0 mi Calm Calm - N/A   Clear
9:53 PM 70.0 °F - 64.0 °F 81% 30.12 in 10.0 mi East 3.5 mph - N/A   Clear
10:53 PM 69.1 °F - 64.0 °F 84% 30.13 in 10.0 mi Calm Calm - N/A   Clear
11:53 PM 69.1 °F - 63.0 °F 81% 30.12 in 10.0 mi Calm Calm - N/A   Clear